| time (UTC) | temp C | wind direction | speed KPH | gust KPH | rain 1hr cm | rain 24hr cm | rain mn cm | humidity % | barometer mb |
| 20260504201511 | 21 | 233 | 14.5 | 27.4 | 0.00 | 0.00 | 0.00 | 40 | 1000.5 |
| 20260504200008 | 21 | 259 | 12.9 | 29.0 | 0.00 | 0.00 | 0.00 | 39 | 1000.8 |
| 20260504194507 | 21 | 296 | 17.7 | 37.0 | 0.00 | 0.00 | 0.00 | 39 | 1001.0 |
| 20260504193004 | 20 | 268 | 17.7 | 29.0 | 0.00 | 0.00 | 0.00 | 41 | 1001.3 |
| 20260504191503 | 21 | 276 | 24.1 | 43.5 | 0.00 | 0.00 | 0.00 | 40 | 1001.5 |
| 20260504190116 | 21 | 283 | 16.1 | 35.4 | 0.00 | 0.00 | 0.00 | 45 | 1001.7 |
| 20260504184626 | 20 | 294 | 12.9 | 32.2 | 0.00 | 0.00 | 0.00 | 47 | 1001.8 |
| 20260504183057 | 21 | 256 | 14.5 | 32.2 | 0.00 | 0.00 | 0.00 | 45 | 1002.0 |
| 20260504181557 | 21 | 303 | 17.7 | 38.6 | 0.00 | 0.00 | 0.00 | 48 | 1002.1 |
| 20260504180055 | 20 | 296 | 20.9 | 33.8 | 0.00 | 0.00 | 0.00 | 47 | 1002.2 |
| 20260504174553 | 20 | 273 | 22.5 | 40.2 | 0.00 | 0.00 | 0.00 | 51 | 1002.2 |
| 20260504173050 | 20 | 266 | 16.1 | 27.4 | 0.00 | 0.00 | 0.00 | 52 | 1002.2 |
| 20260504171550 | 20 | 273 | 16.1 | 41.8 | 0.00 | 0.00 | 0.00 | 55 | 1002.4 |
| 20260504081517 | 9 | 265 | 14.5 | 30.6 | 0.00 | 0.00 | 0.00 | 61 | 1005.5 |
| 20260504060106 | 9 | 265 | 12.9 | 29.0 | 0.00 | 0.00 | 0.00 | 60 | 1006.2 |
| 20260504044550 | 9 | 267 | 9.7 | 20.9 | 0.00 | 0.00 | 0.00 | 59 | 1006.5 |
| 20260504043045 | 9 | 244 | 11.3 | 24.1 | 0.00 | 0.00 | 0.00 | 60 | 1006.5 |
| 20260504041542 | 9 | 275 | 6.4 | 19.3 | 0.00 | 0.00 | 0.00 | 60 | 1006.6 |
| 20260504040044 | 9 | 264 | 16.1 | 20.9 | 0.00 | 0.00 | 0.00 | 60 | 1006.8 |
| 20260504034539 | 9 | 242 | 6.4 | 17.7 | 0.00 | 0.00 | 0.00 | 61 | 1006.7 |
| 20260504033049 | 10 | 275 | 4.8 | 16.1 | 0.00 | 0.00 | 0.00 | 61 | 1006.8 |
| 20260504031538 | 10 | 254 | 8.0 | 14.5 | 0.00 | 0.00 | 0.00 | 60 | 1006.7 |
| 20260504030037 | 10 | 266 | 9.7 | 20.9 | 0.00 | 0.00 | 0.00 | 59 | 1006.8 |
| 20260504024545 | 10 | 269 | 9.7 | 22.5 | 0.00 | 0.00 | 0.00 | 59 | 1006.9 |
| 20260504023036 | 10 | 285 | 11.3 | 20.9 | 0.00 | 0.00 | 0.00 | 59 | 1007.1 |
| 20260504021539 | 11 | 281 | 9.7 | 25.7 | 0.00 | 0.00 | 0.00 | 59 | 1007.2 |
| 20260504020034 | 11 | 302 | 14.5 | 40.2 | 0.00 | 0.00 | 0.00 | 58 | 1007.3 |
| 20260504014534 | 11 | 271 | 16.1 | 41.8 | 0.00 | 0.00 | 0.00 | 57 | 1007.4 |
| 20260504013038 | 11 | 291 | 19.3 | 40.2 | 0.00 | 0.00 | 0.00 | 56 | 1007.2 |
| 20260504011533 | 11 | 304 | 19.3 | 30.6 | 0.00 | 0.00 | 0.00 | 57 | 1007.2 |
| 20260504010032 | 10 | 309 | 17.7 | 33.8 | 0.00 | 0.00 | 0.00 | 58 | 1007.2 |
| 20260504004541 | 10 | 299 | 14.5 | 33.8 | 0.00 | 0.00 | 0.00 | 58 | 1007.2 |
| 20260504003030 | 11 | 293 | 27.4 | 48.3 | 0.00 | 0.00 | 0.00 | 56 | 1007.5 |
| 20260504001530 | 11 | 301 | 22.5 | 38.6 | 0.00 | 0.00 | 0.00 | 53 | 1007.2 |
| 20260504000030 | 11 | 298 | 20.9 | 35.4 | 0.00 | 0.00 | 0.00 | 52 | 1007.0 |
| 20260503234529 | 11 | 285 | 22.5 | 43.5 | 0.00 | 0.00 | 0.00 | 53 | 1007.0 |
| 20260503233031 | 11 | 315 | 25.7 | 46.7 | 0.00 | 0.00 | 0.00 | 53 | 1007.2 |
| 20260503231527 | 11 | 334 | 24.1 | 46.7 | 0.00 | 0.00 | 0.00 | 51 | 1007.0 |
| 20260503230032 | 11 | 312 | 37.0 | 59.5 | 0.00 | 0.00 | 0.00 | 49 | 1006.8 |
| 20260503224526 | 12 | 301 | 30.6 | 51.5 | 0.00 | 0.00 | 0.00 | 48 | 1006.8 |
| 20260503223026 | 12 | 296 | 20.9 | 46.7 | 0.00 | 0.00 | 0.00 | 48 | 1006.7 |
| 20260503221525 | 12 | 321 | 17.7 | 43.5 | 0.00 | 0.00 | 0.00 | 49 | 1006.8 |
| 20260503220025 | 12 | 300 | 33.8 | 61.2 | 0.00 | 0.00 | 0.00 | 45 | 1006.7 |
| 20260503214523 | 12 | 312 | 20.9 | 56.3 | 0.00 | 0.00 | 0.00 | 49 | 1006.7 |
| 20260503213027 | 12 | 298 | 19.3 | 38.6 | 0.00 | 0.00 | 0.00 | 50 | 1006.5 |
| 20260503211534 | 13 | 312 | 19.3 | 43.5 | 0.00 | 0.00 | 0.00 | 48 | 1006.5 |
| 20260503210020 | 13 | 256 | 27.4 | 46.7 | 0.00 | 0.00 | 0.00 | 51 | 1006.5 |
| 20260503204518 | 13 | 325 | 22.5 | 40.2 | 0.00 | 0.00 | 0.00 | 51 | 1006.6 |
| 20260503203015 | 12 | 329 | 17.7 | 25.7 | 0.00 | 0.00 | 0.00 | 53 | 1006.9 |